sat.trackr.live / text

‹ back to catalog

STARLINK-31903

NORAD 59845 · 2024-097L

PAYLOAD ACTIVE UNKNOWN

§ Identity

Operator
Country
US
Launch date
2024-05-23
Launch site
AFETR
Launch vehicle
Mass (kg)
RCS (m²)

Purposes: comms

External: N2YO · Heavens-Above · Gunter

§ Orbital elements

Epoch: 2026-09-21T08:45:49.252032Z

Period
94.27 min
Inclination
42.9994°
Eccentricity
0.0001026
Mean motion
15.27576479 rev/d
Perigee alt
482.4 km
Apogee alt
483.8 km
Semi-major
6,861.2 km
B*
-3.2805e-5
RAAN
242.2901°
Arg perigee
273.8863°
Mean anomaly
86.1871°
Rev number
13,192

§ Raw data

STARLINK-319031 59845U 24097L   26264.36515338 -.00001164  00000+0 -32805-4 0  99922 59845  42.9994 242.2901 0001026 273.8863  86.1871 15.27576479131926

JSON: /api/v1/satellites/59845 · /tle

For live sub-satellite position, see the globe view (requires WebGL).

§ Visibility from observer

Set your observer location to see the next 7 days of passes ≥ 10°. The values pass through the URL so the page stays shareable.

No JS? Fill the form by hand. The geolocation button needs JavaScript.